Weather History for Greenwood, SC

Change the Weather History Date:

Saturday, April 20, 2013

  Actual Average (KAND) Record (KAND)
Temperature  
Mean Temperature 52 °F -  
Max Temperature 66 °F 74 °F 88 °F (2002)
Min Temperature 39 °F 50 °F 25 °F (1983)
Degree Days  
Heating Degree Days 14    
Growing Degree Days 2 (Base 50)    
Moisture  
Dew Point 36 °F    
Average Humidity 60    
Maximum Humidity 97    
Minimum Humidity 28    
Precipitation  
Precipitation 0.00 in - - ()
Sea Level Pressure  
Sea Level Pressure 30.14 in    
Wind  
Wind Speed 5 mph (NW)    
Max Wind Speed 14 mph    
Max Gust Speed 22 mph    
Visibility 10 miles    
Events      
Averages and records for this station are not official NWS values.
T = Trace of Precipitation, MM = Missing Value Source: NWS Daily Summary

Daily Weather History Graph

Daily Weather History Graph

Search for Another Location

Airport:

Trip Planner

Search our weather history database for the weather conditions in past years. The results will help you decide how hot, cold, wet, or windy it might be!

Date:

Astronomy

Apr. 20, 2013 Rise Set
Actual Time 6:51 AM EDT 8:04 PM EDT
Civil Twilight 6:24 AM EDT 8:30 PM EDT
Nautical Twilight 5:53 AM EDT 9:01 PM EDT
Astronomical Twilight 5:21 AM EDT 9:34 PM EDT
Moon 3:00 PM EDT (4/20) 3:25 AM EDT (4/20)
Length of Visible Light 14h 05m
Length of Day
13h 13m
Waxing Gibbous, 71% of the Moon is Illuminated
Apr 20
Waxing Gibbous
Apr 25
Full
May 2
Last Quarter
May 9
New
May 18
First Quarter

Hourly Weather History & Observations

Time (EDT) Temp. Windchill Dew Point Humidity Pressure Visibility Wind Dir Wind Speed Gust Speed Precip Events Conditions
12:56 AM 48.9 °F - 45.0 °F 86% 29.96 in 10.0 mi West 9.2 mph - N/A   Clear
1:56 AM 48.9 °F - 44.1 °F 83% 29.98 in 10.0 mi West 8.1 mph - N/A   Clear
2:56 AM 46.9 °F - 44.1 °F 90% 30.00 in 10.0 mi West 3.5 mph - N/A   Clear
3:56 AM 46.0 °F - 43.0 °F 89% 30.01 in 10.0 mi Calm Calm - N/A   Clear
4:56 AM 43.0 °F 41.3 °F 42.1 °F 97% 30.03 in 10.0 mi WNW 3.5 mph - N/A   Clear
5:56 AM 43.0 °F - 41.0 °F 93% 30.07 in 10.0 mi Calm Calm - N/A   Clear
6:56 AM 39.9 °F 37.8 °F 37.9 °F 93% 30.11 in 10.0 mi NNW 3.5 mph - N/A   Clear
7:56 AM 43.0 °F 41.3 °F 37.0 °F 80% 30.14 in 10.0 mi North 3.5 mph - N/A   Clear
8:56 AM 48.9 °F - 32.0 °F 52% 30.16 in 10.0 mi North 10.4 mph 17.3 mph N/A   Clear
9:56 AM 53.1 °F - 28.0 °F 38% 30.17 in 10.0 mi North 13.8 mph 21.9 mph N/A   Clear
10:56 AM 55.9 °F - 27.0 °F 33% 30.19 in 10.0 mi NNE 9.2 mph 18.4 mph N/A   Clear
11:56 AM 59.0 °F - 26.1 °F 28% 30.20 in 10.0 mi North 8.1 mph 17.3 mph N/A   Clear
12:56 PM 60.1 °F - 28.9 °F 31% 30.19 in 10.0 mi NNW 4.6 mph - N/A   Clear
1:56 PM 62.1 °F - 30.9 °F 31% 30.17 in 10.0 mi Variable 3.5 mph - N/A   Clear
2:56 PM 63.0 °F - 30.0 °F 29% 30.16 in 10.0 mi Variable 6.9 mph - N/A   Clear
3:56 PM 64.0 °F - 30.0 °F 28% 30.15 in 10.0 mi WNW 5.8 mph - N/A   Clear
4:56 PM 64.0 °F - 30.0 °F 28% 30.15 in 10.0 mi Variable 4.6 mph - N/A   Clear
5:56 PM 64.0 °F - 32.0 °F 30% 30.15 in 10.0 mi Calm Calm - N/A   Clear
6:56 PM 63.0 °F - 33.1 °F 33% 30.16 in 10.0 mi SW 4.6 mph - N/A   Clear
7:56 PM 57.0 °F - 39.9 °F 53% 30.18 in 10.0 mi Calm Calm - N/A   Clear
8:56 PM 51.1 °F - 39.9 °F 66% 30.21 in 10.0 mi Calm Calm - N/A   Clear
9:56 PM 48.0 °F - 41.0 °F 77% 30.24 in 10.0 mi Calm Calm - N/A   Clear
10:56 PM 45.0 °F - 41.0 °F 86% 30.26 in 10.0 mi Calm Calm - N/A   Clear
11:56 PM 43.0 °F - 41.0 °F 93% 30.26 in 10.0 mi Calm Calm - N/A   Clear